• In Hungary
  • List of Countries
  • For 7 days
  • Water Temperature
  • Satellite Maps
  • Weather Map
  • News
  • Weather Widgets
  • user-avatar
    Login

    Hourly Weather Gorzyce

    Today, 23 October, Monday

    Time Temperature Precipitation Wind Pressure Humidity
    00:00 +9°C° 0.1 mm 1 mps 738 mmHg 91%
    01:00 +8°C° 0.1 mm 2 mps 738 mmHg 90%
    02:00 +8°C° 0.2 mm 2 mps 738 mmHg 90%
    03:00 +8°C° 0.2 mm 2 mps 737 mmHg 90%
    04:00 +8°C° 0.2 mm 2 mps 737 mmHg 89%
    05:00 +8°C° 0.2 mm 3 mps 737 mmHg 89%
    06:00 +8°C° 0.2 mm 3 mps 737 mmHg 89%
    07:00 +7°C° 0.2 mm 3 mps 737 mmHg 89%
    08:00 +7°C° 0.2 mm 4 mps 737 mmHg 88%
    09:00 +7°C° 0.2 mm 4 mps 737 mmHg 87%
    10:00 +8°C° 0.2 mm 4 mps 737 mmHg 85%
    11:00 +8°C° 0.3 mm 4 mps 737 mmHg 85%
    12:00 +8°C° 0.3 mm 5 mps 738 mmHg 85%
    13:00 +8°C° 0.3 mm 5 mps 738 mmHg 84%
    14:00 +8°C° 0.4 mm 5 mps 738 mmHg 85%
    15:00 +8°C° 0.4 mm 5 mps 738 mmHg 86%
    16:00 +8°C° 0.4 mm 5 mps 738 mmHg 87%
    17:00 +8°C° 0.5 mm 5 mps 739 mmHg 88%
    18:00 +8°C° 0.5 mm 5 mps 739 mmHg 89%
    19:00 +8°C° 0.5 mm 5 mps 739 mmHg 90%
    20:00 +8°C° 0.6 mm 5 mps 740 mmHg 90%
    21:00 +8°C° 0.6 mm 5 mps 740 mmHg 90%
    22:00 +7°C° 0.6 mm 5 mps 741 mmHg 90%
    23:00 +7°C° 0.4 mm 5 mps 741 mmHg 91%

    Tomorrow, 24 October, Tuesday

    Time Temperature Precipitation Wind Pressure Humidity
    00:00 +7°C° 0.4 mm 5 mps 742 mmHg 91%
    01:00 +7°C° 0.4 mm 4 mps 742 mmHg 91%
    02:00 +7°C° 0.1 mm 4 mps 743 mmHg 91%
    03:00 +7°C° 0.1 mm 4 mps 743 mmHg 91%
    04:00 +7°C° 0.1 mm 4 mps 743 mmHg 91%
    05:00 +7°C° 0.1 mm 4 mps 744 mmHg 90%
    06:00 +7°C° 0.1 mm 4 mps 744 mmHg 90%
    07:00 +7°C° 0.1 mm 3 mps 745 mmHg 90%
    08:00 +8°C° 0 mm 3 mps 745 mmHg 88%
    09:00 +8°C° 0 mm 3 mps 746 mmHg 86%
    10:00 +8°C° 0 mm 3 mps 746 mmHg 83%
    11:00 +9°C° 0 mm 3 mps 746 mmHg 81%
    12:00 +9°C° 0 mm 2 mps 746 mmHg 78%
    13:00 +9°C° 0 mm 2 mps 746 mmHg 75%
    14:00 +9°C° 0 mm 2 mps 746 mmHg 76%
    15:00 +9°C° 0 mm 2 mps 747 mmHg 77%
    16:00 +9°C° 0 mm 2 mps 747 mmHg 77%
    17:00 +8°C° 0 mm 2 mps 747 mmHg 80%
    18:00 +8°C° 0 mm 1 mps 747 mmHg 83%
    19:00 +7°C° 0 mm 1 mps 748 mmHg 87%
    20:00 +7°C° 0 mm 1 mps 748 mmHg 87%
    21:00 +6°C° 0 mm 1 mps 748 mmHg 88%
    22:00 +6°C° 0 mm 1 mps 748 mmHg 89%
    23:00 +6°C° 0 mm 1 mps 748 mmHg 89%

    Day after tomorrow, 25 October, Wednesday

    Time Temperature Precipitation Wind Pressure Humidity
    00:00 +6°C° 0 mm 1 mps 748 mmHg 89%
    01:00 +6°C° 0 mm 1 mps 748 mmHg 89%
    02:00 +5°C° 0 mm 1 mps 748 mmHg 89%
    03:00 +5°C° 0 mm 1 mps 748 mmHg 89%
    04:00 +5°C° 0 mm 1 mps 748 mmHg 88%
    05:00 +5°C° 0 mm 1 mps 748 mmHg 87%
    06:00 +5°C° 0 mm 1 mps 748 mmHg 86%
    07:00 +6°C° 0 mm 1 mps 748 mmHg 85%
    08:00 +7°C° 0 mm 2 mps 748 mmHg 79%
    09:00 +9°C° 0 mm 2 mps 748 mmHg 72%
    10:00 +12°C° 0 mm 2 mps 748 mmHg 65%
    11:00 +12°C° 0.1 mm 2 mps 747 mmHg 66%
    12:00 +13°C° 0.1 mm 2 mps 747 mmHg 67%
    13:00 +14°C° 0.1 mm 2 mps 747 mmHg 68%
    14:00 +13°C° 0 mm 2 mps 747 mmHg 72%
    15:00 +13°C° 0 mm 2 mps 747 mmHg 77%
    16:00 +13°C° 0 mm 2 mps 746 mmHg 82%
    17:00 +12°C° 0 mm 2 mps 747 mmHg 85%
    18:00 +12°C° 0 mm 2 mps 747 mmHg 88%
    19:00 +10°C° 0 mm 2 mps 747 mmHg 91%
    20:00 +10°C° 0 mm 2 mps 747 mmHg 91%
    21:00 +10°C° 0 mm 3 mps 747 mmHg 91%
    22:00 +10°C° 0 mm 3 mps 747 mmHg 92%
    23:00 +10°C° 0 mm 3 mps 747 mmHg 92%

    26 October, Thursday

    Time Temperature Precipitation Wind Pressure Humidity
    00:00 +12°C° 0 mm 2 mps 747 mmHg 92%
    01:00 +12°C° 0 mm 2 mps 747 mmHg 92%
    02:00 +10°C° 0 mm 2 mps 747 mmHg 92%
    03:00 +10°C° 0 mm 2 mps 747 mmHg 93%
    04:00 +10°C° 0 mm 2 mps 747 mmHg 93%
    05:00 +10°C° 0 mm 2 mps 747 mmHg 94%
    06:00 +10°C° 0 mm 2 mps 747 mmHg 94%
    07:00 +10°C° 0 mm 2 mps 747 mmHg 94%
    08:00 +11°C° 0 mm 3 mps 747 mmHg 89%
    09:00 +13°C° 0 mm 3 mps 747 mmHg 84%
    10:00 +14°C° 0 mm 3 mps 747 mmHg 80%
    11:00 +15°C° 0 mm 4 mps 746 mmHg 76%
    12:00 +15°C° 0 mm 4 mps 746 mmHg 73%
    13:00 +17°C° 0 mm 4 mps 746 mmHg 69%
    14:00 +17°C° 0 mm 4 mps 745 mmHg 71%
    15:00 +16°C° 0 mm 3 mps 745 mmHg 74%
    16:00 +14°C° 0 mm 3 mps 745 mmHg 76%
    17:00 +14°C° 0 mm 3 mps 745 mmHg 80%
    18:00 +13°C° 0 mm 3 mps 745 mmHg 83%
    19:00 +12°C° 0 mm 3 mps 744 mmHg 86%
    20:00 +12°C° 0 mm 3 mps 744 mmHg 87%
    21:00 +12°C° 0 mm 3 mps 744 mmHg 88%
    22:00 +12°C° 0 mm 3 mps 744 mmHg 89%
    23:00 +12°C° 0 mm 3 mps 743 mmHg 89%

    27 October, Friday

    Time Temperature Precipitation Wind Pressure Humidity
    00:00 +12°C° 0 mm 3 mps 743 mmHg 89%
    01:00 +12°C° 0 mm 3 mps 742 mmHg 89%
    02:00 +12°C° 0 mm 3 mps 742 mmHg 89%
    03:00 +12°C° 0 mm 3 mps 741 mmHg 90%
    04:00 +12°C° 0 mm 3 mps 741 mmHg 90%
    05:00 +12°C° 0.2 mm 3 mps 740 mmHg 90%
    06:00 +12°C° 0.2 mm 4 mps 740 mmHg 89%
    07:00 +12°C° 0.2 mm 4 mps 740 mmHg 89%
    08:00 +12°C° 0.3 mm 4 mps 739 mmHg 87%
    09:00 +12°C° 0.3 mm 4 mps 739 mmHg 86%
    10:00 +12°C° 0.3 mm 4 mps 738 mmHg 85%
    11:00 +12°C° 1.2 mm 4 mps 738 mmHg 86%
    12:00 +11°C° 1.2 mm 4 mps 737 mmHg 86%
    13:00 +10°C° 1.2 mm 4 mps 737 mmHg 87%
    14:00 +10°C° 0.9 mm 4 mps 737 mmHg 86%
    15:00 +9°C° 0.9 mm 3 mps 737 mmHg 85%
    16:00 +9°C° 0.9 mm 3 mps 737 mmHg 85%
    17:00 +9°C° 0.1 mm 3 mps 737 mmHg 85%
    18:00 +8°C° 0.1 mm 3 mps 737 mmHg 85%
    19:00 +8°C° 0.1 mm 3 mps 737 mmHg 85%
    20:00 +7°C° 0.1 mm 4 mps 737 mmHg 86%
    21:00 +7°C° 0.1 mm 4 mps 737 mmHg 86%
    22:00 +7°C° 0.1 mm 4 mps 737 mmHg 86%
    23:00 +7°C° 0.1 mm 4 mps 737 mmHg 86%

    28 October, Saturday

    Time Temperature Precipitation Wind Pressure Humidity
    00:00 +7°C° 0.1 mm 4 mps 737 mmHg 87%
    01:00 +7°C° 0.1 mm 4 mps 736 mmHg 87%
    02:00 +7°C° 0.1 mm 4 mps 736 mmHg 87%
    03:00 +7°C° 0.1 mm 4 mps 735 mmHg 86%
    04:00 +7°C° 0.1 mm 3 mps 735 mmHg 86%
    05:00 +6°C° 0.3 mm 4 mps 735 mmHg 86%
    06:00 +6°C° 0.3 mm 4 mps 734 mmHg 86%
    07:00 +6°C° 0.3 mm 4 mps 734 mmHg 86%
    08:00 +7°C° 0.5 mm 5 mps 734 mmHg 83%
    09:00 +7°C° 0.5 mm 5 mps 733 mmHg 80%
    10:00 +7°C° 0.5 mm 6 mps 733 mmHg 77%
    11:00 +8°C° 0.3 mm 6 mps 732 mmHg 76%
    12:00 +8°C° 0.3 mm 6 mps 732 mmHg 75%
    13:00 +8°C° 0.3 mm 6 mps 732 mmHg 74%
    14:00 +8°C° 0.7 mm 5 mps 731 mmHg 77%
    15:00 +8°C° 0.7 mm 4 mps 731 mmHg 80%
    16:00 +9°C° 0.7 mm 3 mps 731 mmHg 84%
    17:00 +8°C° 0.4 mm 3 mps 731 mmHg 86%
    18:00 +8°C° 0.4 mm 3 mps 731 mmHg 88%
    19:00 +7°C° 0.4 mm 2 mps 732 mmHg 90%
    20:00 +7°C° 0.2 mm 2 mps 732 mmHg 90%
    21:00 +7°C° 0.2 mm 2 mps 733 mmHg 90%
    22:00 +7°C° 0.2 mm 2 mps 733 mmHg 90%
    23:00 +6°C° 0.1 mm 2 mps 734 mmHg 91%

    29 October, Sunday

    Time Temperature Precipitation Wind Pressure Humidity
    00:00 +6°C° 0.1 mm 2 mps 734 mmHg 92%
    01:00 +6°C° 0.1 mm 2 mps 735 mmHg 93%
    02:00 +5°C° 0.1 mm 3 mps 736 mmHg 93%
    03:00 +5°C° 0.1 mm 3 mps 736 mmHg 92%
    04:00 +7°C° 0.1 mm 3 mps 737 mmHg 92%
    05:00 +7°C° 0.2 mm 3 mps 737 mmHg 91%
    06:00 +7°C° 0.2 mm 3 mps 738 mmHg 91%
    07:00 +7°C° 0.2 mm 3 mps 738 mmHg 90%
    08:00 +7°C° 0.2 mm 3 mps 739 mmHg 88%
    09:00 +7°C° 0.2 mm 4 mps 739 mmHg 85%
    10:00 +7°C° 0.2 mm 4 mps 740 mmHg 82%
    11:00 +8°C° 0.1 mm 4 mps 739 mmHg 78%
    12:00 +8°C° 0.1 mm 4 mps 739 mmHg 74%
    13:00 +8°C° 0.1 mm 4 mps 739 mmHg 70%
    14:00 +8°C° 0 mm 4 mps 738 mmHg 72%
    15:00 +9°C° 0 mm 3 mps 738 mmHg 73%
    16:00 +9°C° 0 mm 3 mps 738 mmHg 75%
    17:00 +8°C° 0 mm 3 mps 738 mmHg 77%
    18:00 +7°C° 0 mm 4 mps 737 mmHg 79%
    19:00 +6°C° 0 mm 4 mps 737 mmHg 81%
    20:00 +7°C° 0.1 mm 4 mps 737 mmHg 82%
    21:00 +7°C° 0.1 mm 4 mps 737 mmHg 83%
    22:00 +7°C° 0.1 mm 4 mps 736 mmHg 84%
    23:00 +7°C° 0.1 mm 4 mps 736 mmHg 84%
    Show more